H1 CPF 2 NER 2021 5 10 9 130 01 glonass140 H2 1903001 9140 44299 2021 5 10 0 0 0 2021 5 13 23 45 0 900 1 1 0 0 0 1 H9 10 0 59344 0.00000 0 7653769.060 -8267720.422 -22859604.012 10 0 59344 900.00000 0 10175070.175 -7071440.253 -22269200.074 10 0 59344 1800.00000 0 12684322.038 -6098320.439 -21245125.021 10 0 59344 2700.00000 0 15113466.051 -5357084.057 -19807290.582 10 0 59344 3600.00000 0 17395335.963 -4844049.640 -17983687.849 10 0 59344 4500.00000 0 19466294.169 -4543475.690 -15809839.979 10 0 59344 5400.00000 0 21268734.315 -4428427.178 -13328105.498 10 0 59344 6300.00000 0 22753345.076 -4462126.453 -10586845.942 10 0 59344 7200.00000 0 23881039.950 -4599730.138 -7639474.630 10 0 59344 8100.00000 0 24624472.153 -4790455.268 -4543405.844 10 0 59344 9000.00000 0 24969071.316 -4979963.080 -1358925.825 10 0 59344 9900.00000 0 24913559.063 -5112897.932 1851991.222 10 0 59344 10800.00000 0 24469922.857 -5135472.340 5026897.960 10 0 59344 11700.00000 0 23662850.542 -4997987.416 8104094.903 10 0 59344 12600.00000 0 22528650.877 -4657181.133 11023832.895 10 0 59344 13500.00000 0 21113707.015 -4078304.473 13729473.218 10 0 59344 14400.00000 0 19472529.327 -3236837.512 16168582.726 10 0 59344 15300.00000 0 17665490.435 -2119773.048 18293942.969 10 0 59344 16200.00000 0 15756338.146 -726413.891 20064454.551 10 0 59344 17100.00000 0 13809590.559 931349.559 21445920.302 10 0 59344 18000.00000 0 11887921.955 2829292.934 22411693.358 10 0 59344 18900.00000 0 10049647.759 4931632.288 22943179.134 10 0 59344 19800.00000 0 8346412.087 7192287.373 23030182.845 10 0 59344 20700.00000 0 6821172.737 9556581.850 22671097.053 10 0 59344 21600.00000 0 5506565.714 11963310.805 21872926.525 10 0 59344 22500.00000 0 4423715.621 14347090.970 20651150.386 10 0 59344 23400.00000 0 3581539.926 16640897.466 19029424.308 10 0 59344 24300.00000 0 2976574.693 18778683.267 17039128.100 10 0 59344 25200.00000 0 2593328.066 20697974.037 14718766.706 10 0 59344 26100.00000 0 2405146.103 22342331.656 12113235.204 10 0 59344 27000.00000 0 2375554.393 23663584.878 9272960.887 10 0 59344 27900.00000 0 2460019.133 24623734.781 6252937.797 10 0 59344 28800.00000 0 2608053.864 25196455.642 3111671.419 10 0 59344 29700.00000 0 2765583.341 25368128.361 -89946.963 10 0 59344 30600.00000 0 2877465.044 25138362.699 -3289815.087 10 0 59344 31500.00000 0 2890061.862 24519985.653 -6425821.209 10 0 59344 32400.00000 0 2753756.912 23538495.584 -9437049.097 10 0 59344 33300.00000 0 2425303.559 22231003.976 -12264963.027 10 0 59344 34200.00000 0 1869910.274 20644708.323 -14854549.332 10 0 59344 35100.00000 0 1062970.811 18834959.393 -17155391.924 10 0 59344 36000.00000 0 -8635.072 16863003.289 -19122660.373 10 0 59344 36900.00000 0 -1345727.170 14793492.581 -20717990.667 10 0 59344 37800.00000 0 -2936533.104 12691870.593 -21910241.021 10 0 59344 38700.00000 0 -4756933.767 10621738.330 -22676107.453 10 0 59344 39600.00000 0 -6771237.620 8642314.468 -23000586.563 10 0 59344 40500.00000 0 -8933453.224 6806094.844 -22877275.989 10 0 59344 41400.00000 0 -11189008.200 5156809.564 -22308506.182 10 0 59344 42300.00000 0 -13476843.723 3727763.363 -21305300.373 10 0 59344 43200.00000 0 -15731797.590 2540628.613 -19887163.136 10 0 59344 44100.00000 0 -17887176.480 1604741.193 -18081701.222 10 0 59344 45000.00000 0 -19877409.578 916928.227 -15924083.906 10 0 59344 45900.00000 0 -21640672.167 461873.902 -13456353.297 10 0 59344 46800.00000 0 -23121368.754 213006.737 -10726598.263 10 0 59344 47700.00000 0 -24272371.078 133869.389 -7788008.591 10 0 59344 48600.00000 0 -25056916.724 179911.411 -4697828.554 10 0 59344 49500.00000 0 -25450088.490 300627.362 -1516231.184 10 0 59344 50400.00000 0 -25439812.512 441947.980 1694863.605 10 0 59344 51300.00000 0 -25027333.818 548781.462 4873002.928 10 0 59344 52200.00000 0 -24227150.192 567595.766 7956422.210 10 0 59344 53100.00000 0 -23066408.375 448931.459 10885249.121 10 0 59344 54000.00000 0 -21583789.275 149737.991 13602666.286 10 0 59344 54900.00000 0 -19827930.316 -364565.793 16056010.067 10 0 59344 55800.00000 0 -17855452.229 -1118393.936 18197784.323 10 0 59344 56700.00000 0 -15728673.726 -2124729.864 19986570.253 10 0 59344 57600.00000 0 -13513109.928 -3384350.008 21387815.811 10 0 59344 58500.00000 0 -11274858.899 -4885566.842 22374490.663 10 0 59344 59400.00000 0 -9077984.525 -6604502.057 22927595.535 10 0 59344 60300.00000 0 -6982003.515 -8505878.639 23036517.474 10 0 59344 61200.00000 0 -5039579.627 -10544299.214 22699225.365 10 0 59344 62100.00000 0 -3294519.141 -12665958.232 21922302.834 10 0 59344 63000.00000 0 -1780149.043 -14810717.856 20720818.418 10 0 59344 63900.00000 0 -518143.613 -16914462.427 19118035.539 10 0 59344 64800.00000 0 482153.390 -18911635.066 17144967.586 10 0 59344 65700.00000 0 1223884.041 -20737852.281 14839785.904 10 0 59344 66600.00000 0 1722303.493 -22332488.937 12247091.221 10 0 59344 67500.00000 0 2003895.410 -23641126.903 9417061.425 10 0 59344 68400.00000 0 2105012.919 -24617765.869 6404490.977 10 0 59344 69300.00000 0 2070102.188 -25226704.191 3267739.557 10 0 59344 70200.00000 0 1949583.239 -25444010.952 67609.340 10 0 59344 71100.00000 0 1797477.199 -25258527.049 -3133827.966 10 0 59344 72000.00000 0 1668880.013 -24672352.445 -6274431.925 10 0 59344 72900.00000 0 1617389.513 -23700798.086 -9293198.807 10 0 59344 73800.00000 0 1692595.026 -22371803.241 -12131448.181 10 0 59344 74700.00000 0 1937736.376 -20724841.474 -14733967.175 10 0 59344 75600.00000 0 2387632.362 -18809360.019 -17050089.782 10 0 59344 76500.00000 0 3066967.648 -16682816.919 -19034689.710 10 0 59344 77400.00000 0 3989012.037 -14408397.456 -20649066.833 10 0 59344 78300.00000 0 5154828.077 -12052504.910 -21861709.479 10 0 59344 79200.00000 0 6553002.317 -9682130.275 -22648917.191 10 0 59344 80100.00000 0 8159913.480 -7362210.839 -22995271.209 10 0 59344 81000.00000 0 9940528.087 -5153087.997 -22893943.068 10 0 59344 81900.00000 0 11849691.753 -3108170.571 -22346834.711 10 0 59344 82800.00000 0 13833863.133 -1271901.366 -21364546.911 10 0 59344 83700.00000 0 15833218.690 321888.102 -19966176.147 10 0 59344 84600.00000 0 17784040.481 1651166.221 -18178943.502 10 0 59344 85500.00000 0 19621286.794 2706383.884 -16037662.629 10 0 59345 0.00000 0 21281237.549 3490623.425 -13584057.140 10 0 59345 900.00000 0 22704102.788 4019208.748 -10865940.583 10 0 59345 1800.00000 0 23836484.540 4318794.829 -7936276.364 10 0 59345 2700.00000 0 24633586.897 4425976.239 -4852135.519 10 0 59345 3600.00000 0 25061082.385 4385476.040 -1673574.430 10 0 59345 4500.00000 0 25096554.780 4247993.077 1537544.838 10 0 59345 5400.00000 0 24730458.405 4067800.894 4718767.399 10 0 59345 6300.00000 0 23966553.900 3900201.550 7808266.989 10 0 59345 7200.00000 0 22821802.965 3798943.505 10746051.271 10 0 59345 8100.00000 0 21325727.556 3813713.823 13475127.050 10 0 59345 9000.00000 0 19519261.475 3987811.365 15942602.679 10 0 59345 9900.00000 0 17453143.589 4356099.350 18100706.394 10 0 59345 10800.00000 0 15185920.650 4943323.558 19907701.664 10 0 59345 11700.00000 0 12781643.629 5762866.620 21328682.842 10 0 59345 12600.00000 0 10307353.626 6815990.296 22336237.004 10 0 59345 13500.00000 0 7830461.543 8091597.196 22910960.661 10 0 59345 14400.00000 0 5416129.466 9566521.783 23041822.744 10 0 59345 15300.00000 0 3124761.192 11206338.583 22726368.075 10 0 59345 16200.00000 0 1009704.341 12966654.358 21970758.312 10 0 59345 17100.00000 0 -884742.455 14794831.197 20789650.106 10 0 59345 18000.00000 0 -2524936.379 16632069.724 19205912.919 10 0 59345 18900.00000 0 -3889046.297 18415766.934 17250191.600 10 0 59345 19800.00000 0 -4967711.134 20082051.727 14960321.450 10 0 59345 20700.00000 0 -5764174.459 21568393.596 12380606.140 10 0 59345 21600.00000 0 -6293890.602 22816176.699 9560971.251 10 0 59345 22500.00000 0 -6583619.249 23773132.455 6556008.639 10 0 59345 23400.00000 0 -6670046.736 24395529.249 3423929.076 10 0 59345 24300.00000 0 -6597991.963 24650027.464 225442.529 10 0 59345 25200.00000 0 -6418272.393 24515121.551 -2977412.917 10 0 59345 26100.00000 0 -6185319.992 23982107.729 -6122471.085 10 0 59345 27000.00000 0 -5954647.802 23055535.515 -9148643.518 10 0 59345 27900.00000 0 -5780274.404 21753122.679 -11997107.603 10 0 59345 28800.00000 0 -5712215.615 20105135.741 -14612453.500 10 0 59345 29700.00000 0 -5794150.235 18153260.475 -16943767.191 10 0 59345 30600.00000 0 -6061359.596 15949008.412 -18945628.092 10 0 59345 31500.00000 0 -6539029.245 13551724.939 -20579001.188 10 0 59345 32400.00000 0 -7240986.042 11026281.425 -21812005.824 10 0 59345 33300.00000 0 -8168925.601 8440547.160 -22620545.629 10 0 59345 34200.00000 0 -9312164.349 5862746.381 -22988786.720 10 0 59345 35100.00000 0 -10647928.309 3358810.494 -22909474.392 10 0 59345 36000.00000 0 -12142167.957 989835.890 -22384081.573 10 0 59345 36900.00000 0 -13750866.115 -1190246.465 -21422785.637 10 0 59345 37800.00000 0 -15421784.809 -3136692.486 -20044273.617 10 0 59345 38700.00000 0 -17096578.243 -4815573.237 -18275379.174 10 0 59345 39600.00000 0 -18713183.173 -6204942.247 -16150558.221 10 0 59345 40500.00000 0 -20208385.986 -7295493.774 -13711213.354 10 0 59345 41400.00000 0 -21520458.048 -8090685.483 -11004880.422 10 0 59345 42300.00000 0 -22591747.668 -8606321.710 -8084293.613 10 0 59345 43200.00000 0 -23371118.869 -8869616.633 -5006347.962 10 0 59345 44100.00000 0 -23816133.557 -8917778.781 -1830980.420 10 0 59345 45000.00000 0 -23894884.663 -8796178.659 1380007.536 10 0 59345 45900.00000 0 -23587402.868 -8556179.023 4564161.713 10 0 59345 46800.00000 0 -22886577.748 -8252721.460 7659596.789 10 0 59345 47700.00000 0 -21798555.048 -7941772.957 10606202.950 10 0 59345 48600.00000 0 -20342594.035 -7677741.736 13346813.591 10 0 59345 49500.00000 0 -18550391.771 -7510972.361 15828311.257 10 0 59345 50400.00000 0 -16464903.465 -7485426.244 18002650.541 10 0 59345 51300.00000 0 -14138709.006 -7636645.296 19827778.837 10 0 59345 52200.00000 0 -11631994.264 -7990084.123 21268438.202 10 0 59345 53100.00000 0 -9010231.471 -8559880.272 22296834.029 10 0 59345 54000.00000 0 -6341654.742 -9348113.551 22893159.124 10 0 59345 54900.00000 0 -3694634.792 -10344584.980 23045964.429 10 0 59345 55800.00000 0 -1135060.584 -11527124.311 22752370.466 10 0 59345 56700.00000 0 1276165.141 -12862413.346 22018116.365 10 0 59345 57600.00000 0 3485414.472 -14307291.071 20857446.054 10 0 59345 58500.00000 0 5448313.971 -15810486.852 19292833.918 10 0 59345 59400.00000 0 7131335.066 -17314710.350 17354554.905 10 0 59345 60300.00000 0 8512930.801 -18759012.100 15080106.665 10 0 59345 61200.00000 0 9584172.886 -20081317.264 12513493.924 10 0 59345 62100.00000 0 10348863.589 -21221027.729 9704387.830 10 0 59345 63000.00000 0 10823118.474 -22121584.464 6707175.254 10 0 59345 63900.00000 0 11034437.777 -22732883.210 3579915.492 10 0 59345 64800.00000 0 11020305.539 -23013442.294 383223.573 10 0 59345 65700.00000 0 10826375.342 -22932231.099 -2820898.854 10 0 59345 66600.00000 0 10504318.920 -22470081.595 -5970262.708 10 0 59345 67500.00000 0 10109428.325 -21620622.377 -9003697.632 10 0 59345 68400.00000 0 9698072.921 -20390694.437 -11862241.590 10 0 59345 69300.00000 0 9325118.888 -18800229.547 -14490290.423 10 0 59345 70200.00000 0 9041420.764 -16881594.591 -16836684.587 10 0 59345 71100.00000 0 8891491.790 -14678427.609 -18855711.474 10 0 59345 72000.00000 0 8911452.426 -12244012.851 -20508003.167 10 0 59345 72900.00000 0 9127344.888 -9639261.490 -21761311.656 10 0 59345 73800.00000 0 9553886.137 -6930381.340 -22591145.882 10 0 59345 74700.00000 0 10193713.330 -4186332.235 -22981257.622 10 0 59345 75600.00000 0 11037154.922 -1476172.702 -22923966.262 10 0 59345 76500.00000 0 12062538.358 1133591.648 -22420315.589 10 0 59345 77400.00000 0 13237022.493 3581547.510 -21480059.048 10 0 59345 78300.00000 0 14517920.520 5813695.225 -20121473.288 10 0 59345 79200.00000 0 15854458.237 7785455.298 -18371003.235 10 0 59345 80100.00000 0 17189893.740 9463276.501 -16262745.390 10 0 59345 81000.00000 0 18463909.076 10825778.799 -13837779.364 10 0 59345 81900.00000 0 19615172.592 11864384.111 -11143360.821 10 0 59345 82800.00000 0 20583963.196 12583409.515 -8231992.085 10 0 59345 83700.00000 0 21314745.018 12999620.579 -5160389.211 10 0 59345 84600.00000 0 21758583.034 13141265.429 -1988366.527 10 0 59345 85500.00000 0 21875296.969 13046632.292 1222338.382 10 0 59346 0.00000 0 21635262.213 12762193.486 4409275.266 10 0 59346 900.00000 0 21020781.168 12340416.428 7510503.092 10 0 59346 1800.00000 0 20026968.509 11837335.576 10465797.548 10 0 59346 2700.00000 0 18662111.514 11309990.099 13217821.379 10 0 59346 3600.00000 0 16947492.842 10813835.722 15713233.807 10 0 59346 4500.00000 0 14916682.524 10400241.102 17903717.918 10 0 59346 5400.00000 0 12614329.905 10114174.090 19746906.855 10 0 59346 6300.00000 0 10094506.200 9992174.987 21207191.844 10 0 59346 7200.00000 0 7418666.919 10060701.350 22256397.723 10 0 59346 8100.00000 0 4653318.606 10334912.982 22874314.339 10 0 59346 9000.00000 0 1867486.024 10817947.237 23049074.992 10 0 59346 9900.00000 0 -869916.183 11500714.247 22777375.814 10 0 59346 10800.00000 0 -3492699.959 12362220.268 22064532.850 10 0 59346 11700.00000 0 -5939901.803 13370405.518 20924376.257 10 0 59346 12600.00000 0 -8158060.467 14483461.787 19378983.816 10 0 59346 13500.00000 0 -10103181.876 15651575.387 17458258.599 10 0 59346 14400.00000 0 -11742311.356 16819023.449 15199358.228 10 0 59346 15300.00000 0 -13054649.226 17926536.885 12645985.820 10 0 59346 16200.00000 0 -14032164.422 18913832.070 9847555.192 10 0 59346 17100.00000 0 -14679681.347 19722205.989 6858245.224 10 0 59346 18000.00000 0 -15014436.692 20297086.535 3735960.661 10 0 59346 18900.00000 0 -15065125.000 20590431.016 541218.534 10 0 59346 19800.00000 0 -14870473.003 20562871.829 -2664018.956 10 0 59346 20700.00000 0 -14477402.520 20185518.315 -5817542.749 10 0 59346 21600.00000 0 -13938859.163 19441337.869 -8858103.364 10 0 59346 22500.00000 0 -13311398.310 18326056.697 -11726601.936 10 0 59346 23400.00000 0 -12652630.272 16848540.569 -14367242.331 10 0 59346 24300.00000 0 -12018632.772 15030637.661 -16728621.548 10 0 59346 25200.00000 0 -11461440.446 12906488.106 -18764736.692 10 0 59346 26100.00000 0 -11026718.030 10521327.344 -20435888.345 10 0 59346 27000.00000 0 -10751716.278 7929831.724 -21709462.192 10 0 59346 27900.00000 0 -10663597.857 5194074.039 -22560573.187 10 0 59346 28800.00000 0 -10778204.885 2381173.386 -22972559.111 10 0 59346 29700.00000 0 -11099321.124 -439263.431 -22937313.418 10 0 59346 30600.00000 0 -11618460.956 -3197802.787 -22455450.357 10 0 59346 31500.00000 0 -12315194.881 -5827836.637 -21536298.638 10 0 59346 32400.00000 0 -13157998.467 -8268116.038 -20197723.329 10 0 59346 33300.00000 0 -14105589.355 -10465060.174 -18465779.039 10 0 59346 34200.00000 0 -15108696.011 -12374744.521 -16374200.925 10 0 59346 35100.00000 0 -16112183.359 -13964485.409 -13963743.389 10 0 59346 36000.00000 0 -17057445.080 -15213955.219 -11281379.469 10 0 59346 36900.00000 0 -17884960.744 -16115782.259 -8379377.048 10 0 59346 37800.00000 0 -18536908.863 -16675611.457 -5314270.539 10 0 59346 38700.00000 0 -18959724.438 -16911624.842 -2145748.981 10 0 59346 39600.00000 0 -19106491.986 -16853543.847 1064516.614 10 0 59346 40500.00000 0 -18939072.244 -16541157.583 4254082.728 10 0 59346 41400.00000 0 -18429872.230 -16022441.211 7360954.999 10 0 59346 42300.00000 0 -17563183.787 -15351345.749 10324797.297 10 0 59346 43200.00000 0 -16336034.205 -14585354.286 13088104.227 10 0 59346 44100.00000 0 -14758513.439 -13782908.988 15597314.015 10 0 59346 45000.00000 0 -12853564.591 -13000818.134 17803840.385 10 0 59346 45900.00000 0 -10656246.827 -12291752.667 19665004.082 10 0 59346 46800.00000 0 -8212501.806 -11701937.312 21144847.047 10 0 59346 47700.00000 0 -5577475.176 -11269132.628 22214814.729 10 0 59346 48600.00000 0 -2813462.689 -11020991.674 22854294.815 10 0 59346 49500.00000 0 12434.391 -10973859.098 23051003.372 10 0 59346 50400.00000 0 2830848.303 -11132061.844 22801212.206 10 0 59346 51300.00000 0 5572774.404 -11487720.267 22109813.995 10 0 59346 52200.00000 0 8172184.146 -12021086.976 20990224.547 10 0 59346 53100.00000 0 10568514.838 -12701399.003 19464124.170 10 0 59346 54000.00000 0 12708934.911 -13488207.816 17561042.904 10 0 59346 54900.00000 0 14550292.345 -14333132.022 15317796.894 10 0 59346 55800.00000 0 16060666.751 -15181960.063 12777785.892 10 0 59346 56700.00000 0 17220461.690 -15977015.627 9990164.298 10 0 59346 57600.00000 0 18022992.504 -16659687.294 7008900.585 10 0 59346 58500.00000 0 18474545.523 -17173016.786 3891742.247 10 0 59346 59400.00000 0 18593906.365 -17464237.293 699105.378 10 0 59346 60300.00000 0 18411377.031 -17487154.977 -2507090.355 10 0 59346 61200.00000 0 17967322.847 -17204272.843 -5664619.061 10 0 59346 62100.00000 0 17310310.110 -16588566.534 -8712155.239 10 0 59346 63000.00000 0 16494912.627 -15624835.851 -11590466.192 10 0 59346 63900.00000 0 15579279.463 -14310573.376 -14243566.626 10 0 59346 64800.00000 0 14622566.462 -12656311.668 -16619812.666 10 0 59346 65700.00000 0 13682340.082 -10685432.288 -18672913.459 10 0 59346 66600.00000 0 12812063.433 -8433442.636 -20362840.091 10 0 59346 67500.00000 0 12058771.063 -5946748.886 -21656613.608 10 0 59346 68400.00000 0 11461031.188 -3280974.573 -22528956.253 10 0 59346 69300.00000 0 11047282.022 -498893.717 -22962792.665 10 0 59346 70200.00000 0 10834613.039 2331936.371 -22949590.786 10 0 59346 71100.00000 0 10828043.247 5141744.707 -22489535.311 10 0 59346 72000.00000 0 11020327.446 7861211.869 -21591529.780 10 0 59346 72900.00000 0 11392299.077 10424120.017 -20273026.842 10 0 59346 73800.00000 0 11913735.333 12769877.244 -18559689.554 10 0 59346 74700.00000 0 12544707.988 14845810.805 -16484890.139 10 0 59346 75600.00000 0 13237362.501 16609133.564 -14089055.834 10 0 59346 76500.00000 0 13938049.595 18028501.617 -11418874.745 10 0 59346 77400.00000 0 14589718.394 19085098.398 -8526377.682 10 0 59346 78300.00000 0 15134468.786 19773200.630 -5467914.500 10 0 59346 79200.00000 0 15516153.907 20100203.563 -2303045.792 10 0 59346 80100.00000 0 15682921.565 20086106.064 906627.302 10 0 59346 81000.00000 0 15589586.157 19762479.059 4098671.270 10 0 59346 81900.00000 0 15199730.030 19170962.790 7211041.800 10 0 59346 82800.00000 0 14487445.026 18361358.143 10183294.012 10 0 59346 83700.00000 0 13438640.555 17389394.322 12957757.234 10 0 59346 84600.00000 0 12051863.076 16314268.370 15480651.313 10 0 59346 85500.00000 0 10338592.789 15196061.146 17703122.905 10 0 59347 0.00000 0 8323005.398 14093138.924 19582182.299 10 0 59347 900.00000 0 6041208.648 13059649.925 21081523.857 10 0 59347 1800.00000 0 3539986.709 12143219.573 22172214.906 10 0 59347 2700.00000 0 875102.845 11382941.495 22833241.871 10 0 59347 3600.00000 0 -1890768.275 10807745.471 23051904.100 10 0 59347 4500.00000 0 -4690394.417 10435210.546 22824049.119 10 0 59347 5400.00000 0 -7454529.206 10270871.019 22154145.816 10 0 59347 6300.00000 0 -10114541.390 10308043.432 21055194.709 10 0 59347 7200.00000 0 -12605022.630 10528181.023 19548477.186 10 0 59347 8100.00000 0 -14866267.504 10901740.448 17663148.315 10 0 59347 9000.00000 0 -16846524.573 11389524.495 15435680.392 10 0 59347 9900.00000 0 -18503926.340 11944444.918 12909167.068 10 0 59347 10800.00000 0 -19808019.110 12513631.989 10132500.354 10 0 59347 11700.00000 0 -20740829.733 13040802.862 7159435.194 10 0 59347 12600.00000 0 -21297425.161 13468789.759 4047558.657 10 0 59347 13500.00000 0 -21485941.525 13742121.974 857182.751 10 0 59347 14400.00000 0 -21327081.385 13809552.997 -2349818.462 10 0 59347 15300.00000 0 -20853099.861 13626425.894 -5511205.208 10 0 59347 16200.00000 0 -20106321.874 13156776.440 -8565578.786 10 0 59347 17100.00000 0 -19137252.398 12375084.091 -11453575.291 10 0 59347 18000.00000 0 -18002358.961 11267595.394 -14119022.690 10 0 59347 18900.00000 0 -16761619.555 9833162.196 -16510038.377 10 0 59347 19800.00000 0 -15475939.193 8083557.193 -18580045.361 10 0 59347 20700.00000 0 -14204544.057 6043251.407 -20288686.696 10 0 59347 21600.00000 0 -13002463.276 3748660.721 -21602619.853 10 0 59347 22500.00000 0 -11918204.722 1246890.953 -22496175.024 10 0 59347 23400.00000 0 -10991723.167 -1405967.692 -22951863.961 10 0 59347 24300.00000 0 -10252766.809 -4146927.045 -22960728.946 10 0 59347 25200.00000 0 -9719672.167 -6908482.220 -22522524.582 10 0 59347 26100.00000 0 -9398658.460 -9621189.008 -21645728.317 10 0 59347 27000.00000 0 -9283651.330 -12216330.259 -20347379.093 10 0 59347 27900.00000 0 -9356643.266 -14628560.186 -18652746.810 10 0 59347 28800.00000 0 -9588575.286 -16798416.041 -16594838.844 10 0 59347 29700.00000 0 -9940702.048 -18674592.176 -14213753.133 10 0 59347 30600.00000 0 -10366381.934 -20215881.388 -11555890.560 10 0 59347 31500.00000 0 -10813215.401 -21392702.384 -8673042.470 10 0 59347 32400.00000 0 -11225439.862 -22188149.769 -5621371.711 10 0 59347 33300.00000 0 -11546478.484 -22598523.405 -2460307.993 10 0 59347 34200.00000 0 -11721533.627 -22633315.936 748619.821 10 0 59347 35100.00000 0 -11700113.972 -22314660.654 3942990.620 10 0 59347 36000.00000 0 -11438387.441 -21676264.676 7060712.529 10 0 59347 36900.00000 0 -10901259.649 -20761874.185 10041234.265 10 0 59347 37800.00000 0 -10064089.671 -19623338.141 12826722.199 10 0 59347 38700.00000 0 -8913970.580 -18318353.531 15363180.022 10 0 59347 39600.00000 0 -7450520.916 -16907988.146 17601489.420 10 0 59347 40500.00000 0 -5686153.980 -15454085.670 19498352.204 10 0 59347 41400.00000 0 -3645813.782 -14016662.088 21017116.686 10 0 59347 42300.00000 0 -1366188.756 -12651402.145 22128473.486 10 0 59347 43200.00000 0 1105564.174 -11407359.756 22811008.839 10 0 59347 44100.00000 0 3713532.599 -10324957.220 23051606.078 10 0 59347 45000.00000 0 6395128.274 -9434365.376 22845688.838 10 0 59347 45900.00000 0 9083448.275 -8754330.755 22197302.282 10 0 59347 46800.00000 0 11709821.232 -8291497.221 21119031.397 10 0 59347 47700.00000 0 14206434.604 -8040249.260 19631758.107 10 0 59347 48600.00000 0 16508935.771 -7983082.566 17764261.669 10 0 59347 49500.00000 0 18558900.668 -8091485.921 15552669.384 10 0 59347 50400.00000 0 20306068.771 -8327297.384 13039767.322 10 0 59347 51300.00000 0 21710252.669 -8644478.066 10274183.266 10 0 59347 52200.00000 0 22742843.475 -8991229.451 7309456.428 10 0 59347 53100.00000 0 23387849.604 -9312365.681 4203010.908 10 0 59347 54000.00000 0 23642425.626 -9551841.318 1015051.774 10 0 59347 54900.00000 0 23516868.775 -9655328.207 -2192595.598 10 0 59347 55800.00000 0 23034082.783 -9572732.608 -5357680.760 10 0 59347 56700.00000 0 22228530.968 -9260545.823 -8418735.024 10 0 59347 57600.00000 0 21144721.915 -8683928.112 -11316266.410 10 0 59347 58500.00000 0 19835290.836 -7818436.607 -13993919.094 10 0 59347 59400.00000 0 18358756.841 -6651322.605 -16399574.459 10 0 59347 60300.00000 0 16777050.143 -5182341.510 -18486371.829 10 0 59347 61200.00000 0 15152913.055 -3424039.184 -20213628.390 10 0 59347 62100.00000 0 13547284.142 -1401500.414 -21547639.895 10 0 59347 63000.00000 0 12016775.578 848432.219 -22462346.016 10 0 59347 63900.00000 0 10611350.068 3278438.203 -22939846.793 10 0 59347 64800.00000 0 9372295.200 5832445.936 -22970759.654 10 0 59347 65700.00000 0 8330580.558 8447735.693 -22554409.507 10 0 59347 66600.00000 0 7505666.882 11057331.768 -21698847.706 10 0 59347 67500.00000 0 6904817.268 13592584.502 -20420699.054 10 0 59347 68400.00000 0 6522939.192 15985834.617 -18744839.444 10 0 59347 69300.00000 0 6342963.546 18173048.450 -16703910.143 10 0 59347 70200.00000 0 6336743.967 20096313.700 -14337678.098 10 0 59347 71100.00000 0 6466437.464 21706091.148 -11692254.862 10 0 59347 72000.00000 0 6686306.868 22963127.824 -8819189.809 10 0 59347 72900.00000 0 6944867.413 23839951.513 -5774455.962 10 0 59347 73800.00000 0 7187285.068 24321884.203 -2617349.014 10 0 59347 74700.00000 0 7357923.549 24407532.659 590677.812 10 0 59347 75600.00000 0 7402930.815 24108736.792 3787219.256 10 0 59347 76500.00000 0 7272754.225 23449979.269 6910139.339 10 0 59347 77400.00000 0 6924477.006 22467282.882 9898783.741 10 0 59347 78300.00000 0 6323876.603 21206643.732 12695159.050 10 0 59347 79200.00000 0 5447117.636 19722067.632 15245055.742 10 0 59347 80100.00000 0 4282008.046 18073293.500 17499093.177 10 0 59347 81000.00000 0 2828765.664 16323300.139 19413666.982 10 0 59347 81900.00000 0 1100263.121 14535701.177 20951781.465 10 0 59347 82800.00000 0 -878259.018 12772137.038 22083752.143 10 0 59347 83700.00000 0 -3069999.059 11089772.182 22787766.269 10 0 59347 84600.00000 0 -5427887.667 9539000.877 23050291.961 10 0 59347 85500.00000 0 -7896314.830 8161455.739 22866329.280 99